Location: La Fredeussais
(48.1780°N, 1.3980°W)
Time: 16:01:26
(UTC+00:00)

X-37B - Pass Details

Date: 06 August 2021
Orbit: 381 x 393 km, 45.0° (Epoch: 29 August)

Event Time Altitude Azimuth Distance (km) Brightness Sun altitude
Exits shadow 03:29:08 21° 231° (SW) 930 1.8 -11.7°
Maximum altitude 03:30:52 41° 171° (S) 567 1.1 -11.5°
Drops below altitude 10° 03:33:51 10° 99° (E) 1,398 4.0 -11.1°
Sets 03:35:58 0° 92° (E) 2,253 5.2 -10.8°
